TimeICT,TemperatureF,Dew PointF,Humidity,Sea Level PressureIn,VisibilityMPH,Wind Direction,Wind SpeedMPH,Gust SpeedMPH,PrecipitationIn,Events,Conditions,WindDirDegrees,DateUTC
12:00 AM,84.2,71.6,66,29.74,6.2,SW,5.8,-,N/A,,Scattered Clouds,230,2013-08-26 17:00:00
12:30 AM,82.4,71.6,70,29.74,6.2,WSW,6.9,-,N/A,,Scattered Clouds,240,2013-08-26 17:30:00
1:00 AM,82.4,71.6,70,29.74,6.2,WSW,5.8,-,N/A,,Scattered Clouds,240,2013-08-26 18:00:00
6:00 AM,80.6,71.6,74,29.74,6.2,South,3.5,-,N/A,,Scattered Clouds,190,2013-08-26 23:00:00
6:30 AM,80.6,71.6,74,29.74,6.2,SW,3.5,-,N/A,,Scattered Clouds,230,2013-08-26 23:30:00
7:00 AM,80,74,79,29.78,6,NW,4.5,,,,Partly Cloudy,320,2013-08-27 00:00:00
7:00 AM,82.4,71.6,70,29.74,6.2,SSW,3.5,-,N/A,,Scattered Clouds,210,2013-08-27 00:00:00
7:30 AM,84.2,71.6,66,29.74,6.2,WSW,4.6,-,N/A,,Scattered Clouds,240,2013-08-27 00:30:00
8:00 AM,84.2,71.6,66,29.77,6.2,WSW,6.9,-,N/A,,Scattered Clouds,250,2013-08-27 01:00:00
8:30 AM,84.2,71.6,66,29.77,6.2,West,8.1,-,N/A,,Scattered Clouds,280,2013-08-27 01:30:00
9:00 AM,84.2,71.6,66,29.77,6.2,West,8.1,-,N/A,,Mostly Cloudy,280,2013-08-27 02:00:00
9:30 AM,86.0,73.4,66,29.77,6.2,WNW,6.9,-,N/A,,Mostly Cloudy,300,2013-08-27 02:30:00
10:00 AM,86.0,73.4,66,29.77,6.2,NNW,8.1,-,N/A,,Scattered Clouds,330,2013-08-27 03:00:00
10:30 AM,86.0,73.4,66,29.77,6.2,NNW,10.4,-,N/A,,Scattered Clouds,340,2013-08-27 03:30:00
11:00 AM,86.0,73.4,66,29.77,6.2,North,6.9,-,N/A,,Scattered Clouds,360,2013-08-27 04:00:00
11:30 AM,84.2,71.6,66,29.77,6.2,North,8.1,-,N/A,,Scattered Clouds,350,2013-08-27 04:30:00
12:00 PM,86.0,71.6,62,29.74,6.2,North,5.8,-,N/A,,Scattered Clouds,350,2013-08-27 05:00:00
12:30 PM,86.0,69.8,58,29.74,6.2,North,3.5,-,N/A,,Scattered Clouds,350,2013-08-27 05:30:00
1:00 PM,82.4,71.6,70,29.74,5.6,WSW,17.3,-,N/A,Rain,Light Rain,240,2013-08-27 06:00:00
1:30 PM,80.6,73.4,79,29.74,6.2,SSW,9.2,-,N/A,,Scattered Clouds,210,2013-08-27 06:30:00
2:00 PM,82.4,71.6,70,29.71,6.2,SSW,11.5,-,N/A,,Scattered Clouds,210,2013-08-27 07:00:00
2:30 PM,84.2,71.6,66,29.68,6.2,WSW,10.4,-,N/A,,Scattered Clouds,240,2013-08-27 07:30:00
3:00 PM,84.2,73.4,70,29.68,6.2,SW,8.1,-,N/A,,Partly Cloudy,230,2013-08-27 08:00:00
3:30 PM,86.0,71.6,62,29.68,6.2,West,8.1,-,N/A,,Partly Cloudy,280,2013-08-27 08:30:00
4:00 PM,86.0,73.4,66,29.68,6.2,WSW,8.1,-,N/A,,Partly Cloudy,240,2013-08-27 09:00:00
4:30 PM,86.0,71.6,62,29.68,6.2,SSW,6.9,-,N/A,,Partly Cloudy,210,2013-08-27 09:30:00
5:00 PM,84.2,73.4,70,29.71,5.6,South,4.6,-,N/A,Rain,Rain,180,2013-08-27 10:00:00
5:30 PM,82.4,73.4,74,29.71,5.6,West,4.6,-,N/A,Rain,Rain,280,2013-08-27 10:30:00
6:00 PM,82.4,71.6,70,29.74,5.6,NW,3.5,-,N/A,,Scattered Clouds,310,2013-08-27 11:00:00
6:30 PM,82.4,71.6,70,29.74,5.6,WNW,3.5,-,N/A,,Scattered Clouds,300,2013-08-27 11:30:00
7:00 PM,82.4,71.6,70,29.74,5.6,Calm,Calm,-,N/A,,Scattered Clouds,0,2013-08-27 12:00:00
7:30 PM,80.6,73.4,79,29.77,5.6,SSW,6.9,-,N/A,,Scattered Clouds,200,2013-08-27 12:30:00
10:00 PM,78.8,75.2,89,29.80,5.0,SSW,5.8,-,N/A,Rain,Light Rain,210,2013-08-27 15:00:00
10:30 PM,78.8,73.4,83,29.80,5.6,SSW,2.3,-,N/A,,Scattered Clouds,210,2013-08-27 15:30:00
11:00 PM,78.8,73.4,83,29.77,5.6,SSW,2.3,-,N/A,,Scattered Clouds,210,2013-08-27 16:00:00
11:30 PM,78.8,75.2,89,29.77,5.6,WSW,5.8,-,N/A,,Scattered Clouds,250,2013-08-27 16:30:00